LEMUR-2-SLICERS

Last updated on Thu Oct 29 2020 00:02:02 GMT+0000 (Coordinated Universal Time)

1 46500U 20068Q 20302.45470779 .00000547 00000-0 46083-4 0 9992 2 46500 97.6661 235.6126 0012431 143.1920 217.0157 15.02208246 4421
UTC large
Height (km)
Speed (km/s)
/
Latitude / Longitude
Inclination (degrees)
Orbital Period (minutes)
Azimuth
Elevation
Range (km)
Doppler Factor

Next 0 passes for location: London (51.5072 / 0.1276)

Sorry there are no passes over London.